Flag for Germany Weather past 2 weeks in Böblingen, Baden-Württemberg, Germany

37 °F

Partly cloudy.

Feels Like: 37 °F
Forecast: 30 / 36 °F
Wind: 1 mph from North

Location: Stuttgart-Echterdingen

Current Time: Nov 25, 2015 at 7:57:22 PM

Latest Report: Nov 25, 2015 at 7:20 PM

Visibility: N/A

Pressure: 29.74 "Hg

Humidity: 87%

Dew point: 34 °F

Location of BöblingenLocation

Historic Weather in Böblingen — Graph


Böblingen temperature yesterday

Maximum temperature yesterday: 37 °F (at 12:20 PM)
Minimum temperature yesterday: 23 °F (at 2:20 AM)
Average temperature yesterday: 31 °F

Past Weeks' High & Low Weather Summary

High68 °F (Nov 16, 1:20 PM)100% (Nov 12, 2:20 AM)30.45 "Hg (Nov 12, 2:20 AM)
Low23 °F (Nov 24, 2:20 AM)23% (Nov 16, 1:20 PM)29.36 "Hg (Nov 21, 2:50 PM)
Average46 °F78%30.05 "Hg
* Reported Nov 10 6:20 PM — Nov 25 6:20 PM, Böblingen, Weather by CustomWeather, © 2015

Note: Actual official high and low records may vary slightly from our data, if they occured in-between our weather recording intervals... More about our weather records


Böblingen weather history for previous 24 hours

Time TempWeatherWind HumidityBarometerVisibility
6:20 PM
Wed, Nov 25
37 °FPassing clouds.3 mph93%29.71 "HgN/A
5:50 PM39 °FPassing clouds.3 mph87%29.71 "HgN/A
5:20 PM39 °FPartly cloudy.5 mph87%29.71 "HgN/A
4:50 PM39 °FLight rain. Passing clouds.5 mph87%29.71 "HgN/A
4:20 PM39 °FLight rain. Partly sunny.3 mph93%29.71 "HgN/A
3:50 PM39 °FLight rain. Partly sunny.8 mph87%29.71 "HgN/A
3:20 PM41 °FLight rain. Partly sunny.8 mph81%29.71 "HgN/A
2:50 PM41 °FPartly sunny.9 mph81%29.71 "HgN/A
2:20 PM41 °FPartly sunny.10 mph81%29.71 "HgN/A
1:50 PM41 °FPartly sunny.8 mph81%29.74 "HgN/A
1:20 PM41 °FPartly sunny.12 mph81%29.74 "HgN/A
12:50 PM41 °FBroken clouds.8 mph87%29.74 "HgN/A
12:20 PM41 °FPartly sunny.7 mph81%29.74 "HgN/A
11:50 AM39 °FPartly sunny.8 mph87%29.77 "HgN/A
11:20 AM39 °FPartly sunny.8 mph87%29.77 "HgN/A
10:50 AM39 °FPartly sunny.8 mph87%29.77 "HgN/A
10:20 AM37 °FBroken clouds.8 mph93%29.77 "HgN/A
9:50 AM37 °FPartly sunny.8 mph87%29.77 "HgN/A
9:20 AM37 °FPartly sunny.8 mph87%29.77 "HgN/A
8:50 AM36 °FPartly sunny.8 mph93%29.77 "HgN/A
8:20 AM36 °FPartly sunny.6 mph93%29.80 "HgN/A
7:50 AM36 °FLight rain. Partly sunny.5 mph93%29.77 "HgN/A
7:20 AM36 °FLight rain. Passing clouds.6 mph93%29.77 "HgN/A
6:50 AM36 °FLight rain. Partly cloudy.8 mph93%29.80 "HgN/A
6:20 AM36 °FLight rain. Passing clouds.5 mph93%29.80 "HgN/A
5:50 AM36 °FPassing clouds.3 mph93%29.80 "HgN/A
5:20 AM34 °FLight rain. Passing clouds.5 mph100%29.80 "HgN/A
4:20 AM34 °FLight snow. Passing clouds.3 mph93%29.80 "Hg4 mi
3:50 AM34 °FLight snow. Passing clouds.5 mph93%29.83 "Hg3 mi
3:20 AM34 °FLight snow. Passing clouds.3 mph93%29.83 "Hg2 mi
2:50 AM34 °FLight snow. Passing clouds.5 mph93%29.83 "Hg4 mi
2:20 AM34 °FLight snow. Passing clouds.7 mph93%29.86 "Hg4 mi
12:50 AM36 °FPassing clouds.7 mph70%29.86 "HgN/A
12:20 AM36 °FPassing clouds.9 mph65%29.89 "HgN/A
11:50 PM
Tue, Nov 24
36 °FPassing clouds.6 mph65%29.89 "HgN/A
11:20 PM36 °FPassing clouds.3 mph70%29.92 "HgN/A
10:50 PM34 °FPassing clouds.5 mph81%29.95 "HgN/A
10:20 PM34 °FLight snow. Partly cloudy.5 mph81%29.95 "HgN/A
9:50 PM34 °FLight snow. Partly cloudy.7 mph81%29.98 "HgN/A
9:20 PM34 °FLight snow. Passing clouds.6 mph81%29.98 "HgN/A
8:50 PM36 °FPassing clouds.6 mph70%30.01 "HgN/A
8:20 PM36 °FPassing clouds.7 mph75%30.01 "HgN/A
7:50 PM34 °FPassing clouds.7 mph81%30.01 "HgN/A
7:20 PM34 °FPassing clouds.3 mph81%30.04 "HgN/A
Weather by CustomWeather, © 2015

See weather overviewHow to use our weather pages